Zurück zum Katalog

SL-14 DEB

AktivPO
NORAD 45287·DEBRIS·🇷🇺 Russia

Gestartet Aug 15, 1991 von Plesetsk Cosmodrome

Loading…

Nächste Überflüge (nächste 24 Stunden)

TLE

AktuellSource: Space-Track

Epoche: Sep 13, 2026, 20:52 UTC

1 45287U 91056Z   26256.86975174  .00000301  00000-0  57965-3 0  9994
2 45287  82.5715  36.1369 0070574  48.6188 312.0982 13.33084038319340

Verfolge SL-14 DEB in Echtzeit mit AllMySat

Download on the App Store